[[{"header":{"parameterUnit":"m.s-1","parameterCategory":1,"la1":30.2991,"la2":30.254,"lo1":-89.0895,"lo2":-89.0444,"dy":0.0017,"dx":0.0017,"nx":28,"ny":28,"refTime":"2024-10-22T03:00:00:Z","depth":0,"parameterNumber":2,"parameterNumberName":"U-component_of_WINDS"},"data":[0,0,0,0,0,0,0,0,0,0,0,0,0,0,0,0,0,0,0,0,0,0,0,0,0,0,0,0,0,0,0,0,0,0,0,0,0,0,0,0,0,0,0,0,0,0,0,0,0,0,0,0,0,0,0,0,0,0,-0.7299,-0.73,0,-0.7368,-0.7369,-0.737,-0.7366,-0.7365,-0.7364,-0.7363,-0.7436,-0.7439,-0.7442,0,0,0,0,0,0,0,0,0,0,0,0,0,-0.7166,-0.7168,-0.7299,-0.73,-0.7301,-0.7368,-0.7369,-0.737,-0.7366,-0.7365,-0.7364,-0.7363,-0.7435,-0.7439,-0.7442,0,0,0,0,0,0,0,0,0,0,0,0,0,-0.7228,-0.7169,-0.7299,-0.7307,-0.7308,-0.7368,-0.7369,-0.737,-0.7366,-0.7365,-0.7363,-0.7362,-0.7434,-0.7438,-0.7443,-0.75,0,0,-0.7456,-0.7458,0,0,0,0,0,0,0,0,-0.7225,-0.7233,-0.7305,-0.7306,-0.7308,-0.7357,-0.7349,-0.7414,-0.7367,-0.7344,-0.7363,-0.7361,-0.7411,-0.7417,-0.7434,-0.7503,-0.7506,-0.7456,-0.7459,-0.7461,-0.7462,0,0,0,0,0,0,0,-0.722,-0.723,-0.7326,-0.7306,-0.7308,-0.7308,-0.7315,-0.7361,-0.7385,-0.7346,-0.7346,-0.7354,-0.7412,-0.7429,-0.7435,-0.7507,-0.7456,-0.746,-0.7463,-0.7464,-0.7629,-0.763,0,0,0,0,0,0,-0.7214,-0.7226,-0.7324,-0.7328,-0.7262,-0.7311,-0.7319,-0.7343,-0.7385,-0.739,-0.7356,-0.7354,-0.7423,-0.743,-0.7438,-0.7509,-0.7461,-0.7465,-0.7467,-0.7627,-0.7629,-0.7631,0,0,0,0,0,0,-0.7211,-0.7223,-0.7321,-0.7277,-0.729,-0.7315,-0.7342,-0.7345,-0.7363,-0.7392,-0.7396,-0.7369,-0.7422,-0.7432,-0.7485,-0.7511,-0.7467,-0.7471,-0.7625,-0.7628,-0.763,-0.765,0,0,0,0,0,0,-0.7207,-0.7222,-0.7243,-0.7278,-0.7292,-0.7366,-0.7343,-0.7347,-0.737,-0.7368,-0.7406,-0.7411,-0.7422,-0.7478,-0.7489,-0.7516,-0.7474,-0.7623,-0.7626,-0.7629,-0.7647,-0.7653,-0.7658,0,0,0,0,0,-0.7202,-0.7246,-0.7244,-0.7256,-0.7319,-0.7368,-0.7376,-0.7387,-0.7372,-0.7394,-0.7413,-0.7409,-0.7506,-0.7483,-0.7496,-0.7525,-0.7621,-0.7625,-0.7629,-0.7645,-0.7652,-0.7658,0,0,0,0,0,0,-0.7213,-0.725,-0.7249,-0.7305,-0.7333,-0.7367,-0.7395,-0.7394,-0.7428,-0.7425,-0.7438,-0.7447,-0.75,-0.7517,-0.7491,-0.7583,-0.7562,-0.7568,-0.757,-0.7577,-0.7582,-0.7577,-0.7477,0,0,0,0,0,-0.7222,-0.7257,-0.7288,-0.7335,-0.7349,-0.7369,-0.7391,-0.7397,-0.7427,-0.7439,-0.7462,-0.7492,-0.753,-0.7554,-0.759,-0.7649,-0.7659,-0.7676,-0.7681,-0.7686,-0.7691,-0.7726,-0.7735,-0.7644,-0.7644,-0.7644,0,0,-0.7241,-0.7266,-0.7287,-0.7337,-0.736,-0.7398,-0.738,-0.742,-0.7448,-0.7446,-0.7497,-0.7515,-0.755,-0.7606,-0.7632,-0.7623,-0.7718,-0.7691,-0.7694,-0.7698,-0.7731,-0.774,-0.7747,-0.7647,-0.7646,-0.7646,0,0,-0.7295,-0.7316,-0.7358,-0.7381,-0.7415,-0.7429,-0.7439,-0.7473,-0.7485,-0.7537,-0.7536,-0.7571,-0.7634,-0.7659,-0.7681,-0.7745,-0.7743,-0.7756,-0.7785,-0.7819,-0.7826,-0.7832,-0.7857,-0.7865,-0.7762,-0.7762,-0.7762,0,-0.7314,-0.7369,-0.7379,-0.742,-0.7443,-0.7442,-0.7485,-0.7508,-0.7552,-0.7569,-0.7557,-0.7638,-0.7661,-0.7724,-0.774,-0.7757,-0.777,-0.7752,-0.7824,-0.7831,-0.7837,-0.786,-0.7869,-0.7763,-0.7763,-0.7763,-0.7763,0,-0.7392,-0.7431,-0.746,-0.7503,-0.7529,-0.7571,-0.7589,-0.7614,-0.7618,-0.7633,-0.7687,-0.7715,-0.7757,-0.7772,-0.7777,-0.7837,-0.783,-0.7821,-0.78,-0.7847,-0.7869,-0.7878,-0.7765,-0.7765,-0.7764,-0.7764,0,0,-0.7455,-0.7503,-0.7514,-0.7534,-0.7573,-0.7603,-0.7645,-0.7686,-0.7709,-0.774,-0.7776,-0.7831,-0.7823,-0.7847,-0.7854,-0.7884,-0.7935,-0.7871,-0.7872,-0.7883,-0.8005,-0.8013,-0.8023,-0.7934,-0.7935,-0.7937,-0.8003,0,-0.7513,-0.7587,-0.7598,-0.7664,-0.7701,-0.7701,-0.7738,-0.7767,-0.7782,-0.7816,-0.7834,-0.7873,-0.7859,-0.7874,-0.7902,-0.7922,-0.796,-0.7918,-0.797,-0.7971,-0.7962,-0.8034,-0.8042,-0.8103,-0.8011,-0.8013,-0.8014,0,-0.7592,-0.7625,-0.7694,-0.7729,-0.7745,-0.7778,-0.7817,-0.7849,-0.7882,-0.7891,-0.7918,-0.7922,-0.7968,-0.7944,-0.8008,-0.7979,-0.8001,-0.8014,-0.8017,-0.8023,-0.7996,-0.8044,-0.8122,-0.8132,-0.8028,-0.8026,-0.8025,0,-0.7632,-0.7694,-0.7744,-0.7761,-0.7802,-0.7826,-0.7844,-0.7875,-0.79,-0.7934,-0.795,-0.799,-0.8012,-0.8043,-0.8058,-0.8039,-0.8121,-0.8098,-0.8131,-0.8131,-0.815,-0.8148,-0.8234,-0.8161,-0.8161,-0.8161,-0.8161,0,-0.7697,-0.774,-0.7763,-0.7794,-0.7843,-0.7855,-0.7903,-0.7921,-0.7949,-0.7984,-0.7987,-0.802,-0.8037,-0.8074,-0.8086,-0.8138,-0.8147,-0.8157,-0.816,-0.8158,-0.8157,-0.8173,-0.817,-0.8163,-0.8163,-0.8162,-0.8162,0,-0.7751,-0.7768,-0.7823,-0.7857,-0.7867,-0.7902,-0.7932,-0.7963,-0.7978,-0.8023,-0.8034,-0.8059,-0.8102,-0.812,-0.8173,-0.8181,-0.8241,-0.824,-0.823,-0.8231,-0.8264,-0.8261,-0.8364,-0.8379,-0.8295,-0.8296,-0.8296,0,-0.7792,-0.7825,-0.7863,-0.7887,-0.7906,-0.7944,-0.7969,-0.7983,-0.8009,-0.8049,-0.8076,-0.8118,-0.8154,-0.8223,-0.8246,-0.8287,-0.8288,-0.8321,-0.8294,-0.8291,-0.829,-0.8289,-0.8293,-0.8327,-0.8327,-0.8328,-0.8329,0,-0.7864,-0.7871,-0.7906,-0.7945,-0.7974,-0.8006,-0.8036,-0.8056,-0.8075,-0.8104,-0.8148,-0.8175,-0.8229,-0.8273,-0.8315,-0.8335,-0.8336,-0.8337,-0.8347,-0.8346,-0.8339,-0.8345,-0.8245,-0.8335,-0.8334,-0.8334,-0.8333,-0.8333,-0.7914,-0.7944,-0.7976,-0.8015,-0.804,-0.8069,-0.81,-0.8119,-0.8155,-0.82,-0.8206,-0.8254,-0.8287,-0.8344,-0.8366,-0.8404,-0.8396,-0.841,-0.8414,-0.8418,-0.8421,-0.8332,-0.8412,-0.8412,-0.8412,-0.8412,-0.8411,0,-0.7987,-0.8007,-0.8044,-0.8087,-0.8118,-0.8115,-0.8149,-0.8176,-0.8218,-0.8248,-0.8283,-0.8334,-0.8376,-0.8403,-0.8446,-0.8472,-0.8473,-0.8483,-0.8482,-0.8487,-0.8425,-0.8413,-0.8481,-0.8481,-0.8481,-0.8481,-0.8481,-0.8481,-0.8029,-0.808,-0.8091,-0.8154,-0.8175,-0.8221,-0.8241,-0.8268,-0.8293,-0.835,-0.8385,-0.8401,-0.8431,-0.8476,-0.8516,-0.8523,-0.8539,-0.8549,-0.8556,-0.8498,-0.8491,-0.8484,-0.8473,-0.8552,-0.8552,-0.8615,-0.8615,-0.8616]},{"header":{"parameterUnit":"m.s-1","parameterCategory":1,"la1":30.2991,"la2":30.254,"lo1":-89.0895,"lo2":-89.0444,"dy":0.0017,"dx":0.0017,"nx":28,"ny":28,"refTime":"2024-10-22T03:00:00:Z","depth":0,"parameterNumber":3,"parameterNumberName":"V-component_of_WINDS"},"data":[0,0,0,0,0,0,0,0,0,0,0,0,0,0,0,0,0,0,0,0,0,0,0,0,0,0,0,0,0,0,0,0,0,0,0,0,0,0,0,0,0,0,0,0,0,0,0,0,0,0,0,0,0,0,0,0,0,0,1.0492,1.0492,0,1.0503,1.0503,1.0503,1.0513,1.0513,1.0513,1.0513,1.0523,1.0524,1.0524,0,0,0,0,0,0,0,0,0,0,0,0,0,1.0478,1.0478,1.0492,1.0492,1.0492,1.0503,1.0503,1.0504,1.0513,1.0513,1.0513,1.0513,1.0523,1.0524,1.0524,0,0,0,0,0,0,0,0,0,0,0,0,0,1.0486,1.0478,1.0492,1.0498,1.0499,1.0503,1.0503,1.0504,1.0513,1.0513,1.0513,1.0513,1.0523,1.0524,1.0524,1.0522,0,0,1.0525,1.0525,0,0,0,0,0,0,0,0,1.0486,1.0487,1.0497,1.0498,1.0499,1.0507,1.0502,1.051,1.0513,1.0508,1.0513,1.0513,1.0518,1.0518,1.052,1.0523,1.0523,1.0525,1.0525,1.0525,1.0525,0,0,0,0,0,0,0,1.0485,1.0486,1.0496,1.0497,1.0498,1.05,1.0502,1.0504,1.0512,1.0508,1.0509,1.051,1.0518,1.052,1.052,1.0523,1.0525,1.0525,1.0525,1.0525,1.0525,1.0525,0,0,0,0,0,0,1.0484,1.0486,1.0496,1.0497,1.0492,1.05,1.0502,1.0504,1.0512,1.0513,1.051,1.051,1.0519,1.052,1.0521,1.0519,1.0525,1.0525,1.0525,1.0525,1.0525,1.0524,0,0,0,0,0,0,1.0483,1.0484,1.0496,1.0491,1.0493,1.0501,1.0503,1.0504,1.0506,1.0513,1.0514,1.051,1.052,1.052,1.0522,1.052,1.0525,1.0525,1.0525,1.0525,1.0525,1.0516,0,0,0,0,0,0,1.0483,1.0484,1.0484,1.0491,1.0493,1.0497,1.0503,1.0504,1.0507,1.0507,1.0514,1.0515,1.052,1.0521,1.0522,1.052,1.0526,1.0525,1.0525,1.0525,1.0516,1.0515,1.0515,0,0,0,0,0,1.0482,1.0481,1.0484,1.0485,1.0493,1.0497,1.0498,1.0504,1.0506,1.0506,1.051,1.0515,1.052,1.0521,1.0522,1.052,1.0525,1.0525,1.0525,1.0517,1.0516,1.0515,0,0,0,0,0,0,1.0473,1.0482,1.0485,1.0486,1.0491,1.0498,1.0498,1.0502,1.0505,1.0506,1.0513,1.0514,1.0515,1.0518,1.0519,1.0519,1.0523,1.0523,1.0517,1.0516,1.0515,1.0514,1.0526,0,0,0,0,0,1.0471,1.0473,1.0481,1.0481,1.0483,1.049,1.0492,1.0496,1.0501,1.0502,1.0507,1.0511,1.0513,1.0515,1.0518,1.0517,1.0518,1.0516,1.0515,1.0514,1.0514,1.0514,1.0513,1.0523,1.0523,1.0523,0,0,1.0466,1.0472,1.0473,1.0479,1.0483,1.0485,1.0492,1.0493,1.0495,1.0503,1.0504,1.0508,1.0512,1.0513,1.0513,1.0515,1.0511,1.0514,1.0513,1.0513,1.0513,1.0512,1.0511,1.0523,1.0523,1.0523,0,0,1.046,1.0464,1.0465,1.0469,1.0475,1.0479,1.0479,1.0486,1.0489,1.0491,1.0497,1.0498,1.0503,1.0506,1.0508,1.0503,1.0506,1.0503,1.0498,1.0498,1.0497,1.0496,1.0494,1.0493,1.0503,1.0503,1.0503,0,1.0454,1.0457,1.0464,1.0466,1.0469,1.0476,1.0476,1.048,1.0486,1.0487,1.049,1.0495,1.0499,1.05,1.0499,1.0501,1.0501,1.0502,1.0497,1.0496,1.0495,1.0493,1.0492,1.0502,1.0503,1.0503,1.0503,0,1.0449,1.0452,1.0452,1.0458,1.046,1.0461,1.0468,1.047,1.0474,1.0478,1.048,1.0485,1.0488,1.0489,1.0493,1.0491,1.0492,1.0495,1.0499,1.0494,1.0492,1.0491,1.0502,1.0502,1.0502,1.0502,0,0,1.0437,1.0447,1.0447,1.045,1.0457,1.0459,1.046,1.0464,1.0465,1.0469,1.047,1.0473,1.0477,1.0479,1.0484,1.0483,1.0478,1.0487,1.0487,1.0485,1.0476,1.0472,1.0471,1.0481,1.0481,1.0481,1.0475,0,1.0431,1.0434,1.044,1.0441,1.0443,1.045,1.0451,1.0456,1.046,1.0462,1.0466,1.0469,1.0473,1.0475,1.0475,1.0479,1.0477,1.048,1.0482,1.0482,1.048,1.0471,1.0467,1.0461,1.0474,1.0474,1.0474,0,1.0424,1.0428,1.0429,1.0436,1.0437,1.0438,1.0442,1.0445,1.045,1.0453,1.0455,1.046,1.0461,1.0466,1.0467,1.0469,1.0471,1.0473,1.0473,1.0473,1.0477,1.047,1.046,1.0458,1.0473,1.0473,1.0473,0,1.0414,1.042,1.0421,1.0424,1.0432,1.0432,1.0436,1.0441,1.0443,1.0446,1.0448,1.0451,1.0453,1.0455,1.0461,1.0464,1.0462,1.0467,1.0464,1.0464,1.0463,1.0462,1.0452,1.0464,1.0464,1.0464,1.0464,0,1.0407,1.0407,1.0417,1.0418,1.0418,1.0425,1.0425,1.0429,1.0434,1.0435,1.0442,1.0443,1.0451,1.0452,1.0457,1.0457,1.0458,1.046,1.0461,1.0459,1.0459,1.046,1.046,1.0464,1.0464,1.0464,1.0464,0,1.0395,1.0402,1.0404,1.0412,1.0414,1.0414,1.042,1.0421,1.0426,1.0427,1.0428,1.0435,1.0438,1.0444,1.0448,1.045,1.0449,1.0452,1.0448,1.0448,1.0445,1.0445,1.0434,1.0433,1.0447,1.0446,1.0446,0,1.039,1.039,1.0398,1.04,1.0403,1.0405,1.0408,1.0415,1.0417,1.0423,1.0423,1.0426,1.0428,1.0432,1.0437,1.044,1.0442,1.0438,1.0443,1.0441,1.0442,1.0441,1.0441,1.0437,1.0437,1.0437,1.0437,0,1.0379,1.0382,1.0385,1.039,1.0392,1.0396,1.04,1.0401,1.0409,1.0411,1.0414,1.0416,1.042,1.0423,1.0427,1.043,1.0434,1.0435,1.0435,1.0432,1.043,1.0431,1.0445,1.0435,1.0436,1.0436,1.0436,1.0436,1.037,1.0371,1.0376,1.038,1.0383,1.0387,1.0388,1.0393,1.0396,1.04,1.0404,1.0406,1.0411,1.0417,1.042,1.0421,1.0424,1.0423,1.0423,1.0422,1.0421,1.043,1.0422,1.0422,1.0422,1.0422,1.0422,0,1.0359,1.0363,1.0366,1.0372,1.0374,1.0379,1.0384,1.0385,1.0387,1.0392,1.0395,1.0398,1.04,1.0406,1.0409,1.0409,1.0412,1.041,1.041,1.041,1.0419,1.0419,1.0408,1.0408,1.0408,1.0408,1.0408,1.0408,1.0354,1.0355,1.0359,1.0362,1.0366,1.0369,1.0371,1.0374,1.0378,1.0381,1.0384,1.0387,1.0392,1.0396,1.0398,1.04,1.0401,1.0398,1.04,1.0408,1.041,1.0411,1.0411,1.0398,1.0398,1.0391,1.0391,1.0391]}]]